Previsão horária em Abay

Hoje, 23 Janeiro, Sábado

Tempo Temperatura Precipitação Vento Pressão Humidade
00:00 -9°C° 0.4 mm 3 m/s 666 mmHg 93%
01:00 -10°C° 0.1 mm 3 m/s 667 mmHg 93%
02:00 -12°C° 0.1 mm 3 m/s 668 mmHg 93%
03:00 -12°C° 0.1 mm 2 m/s 669 mmHg 93%
04:00 -14°C° 0 mm 2 m/s 669 mmHg 94%
05:00 -15°C° 0 mm 2 m/s 669 mmHg 94%
06:00 -17°C° 0 mm 2 m/s 670 mmHg 94%
07:00 -17°C° 0 mm 2 m/s 670 mmHg 94%
08:00 -18°C° 0 mm 2 m/s 671 mmHg 93%
09:00 -19°C° 0 mm 2 m/s 671 mmHg 93%
10:00 -19°C° 0 mm 3 m/s 671 mmHg 90%
11:00 -17°C° 0 mm 3 m/s 672 mmHg 86%
12:00 -17°C° 0 mm 4 m/s 672 mmHg 83%
13:00 -17°C° 0 mm 4 m/s 672 mmHg 83%
14:00 -17°C° 0 mm 4 m/s 672 mmHg 83%
15:00 -17°C° 0 mm 4 m/s 672 mmHg 83%
16:00 -18°C° 0 mm 3 m/s 672 mmHg 87%
17:00 -19°C° 0 mm 3 m/s 672 mmHg 91%
18:00 -20°C° 0 mm 2 m/s 672 mmHg 94%
19:00 -20°C° 0 mm 2 m/s 672 mmHg 94%
20:00 -20°C° 0 mm 2 m/s 672 mmHg 95%
21:00 -21°C° 0 mm 2 m/s 672 mmHg 95%
22:00 -21°C° 0 mm 2 m/s 672 mmHg 95%
23:00 -21°C° 0 mm 2 m/s 672 mmHg 95%

Amanhã, 24 Janeiro, Domingo

Tempo Temperatura Precipitação Vento Pressão Humidade
00:00 -21°C° 0 mm 2 m/s 672 mmHg 95%
01:00 -21°C° 0 mm 2 m/s 672 mmHg 94%
02:00 -21°C° 0 mm 2 m/s 672 mmHg 94%
03:00 -21°C° 0 mm 2 m/s 672 mmHg 94%
04:00 -23°C° 0 mm 2 m/s 672 mmHg 94%
05:00 -23°C° 0 mm 2 m/s 672 mmHg 94%
06:00 -23°C° 0 mm 2 m/s 672 mmHg 94%
07:00 -21°C° 0 mm 2 m/s 672 mmHg 94%
08:00 -21°C° 0 mm 2 m/s 672 mmHg 93%
09:00 -21°C° 0 mm 2 m/s 673 mmHg 93%
10:00 -19°C° 0 mm 2 m/s 673 mmHg 91%
11:00 -18°C° 0 mm 2 m/s 673 mmHg 89%
12:00 -17°C° 0 mm 3 m/s 673 mmHg 87%
13:00 -17°C° 0.1 mm 3 m/s 672 mmHg 86%
14:00 -17°C° 0.1 mm 3 m/s 672 mmHg 85%
15:00 -18°C° 0.1 mm 4 m/s 672 mmHg 84%
16:00 -18°C° 0.1 mm 3 m/s 672 mmHg 88%
17:00 -18°C° 0.1 mm 2 m/s 672 mmHg 91%
18:00 -19°C° 0.1 mm 2 m/s 672 mmHg 95%
19:00 -19°C° 0.1 mm 2 m/s 672 mmHg 96%
20:00 -20°C° 0.1 mm 2 m/s 672 mmHg 96%
21:00 -20°C° 0.1 mm 2 m/s 673 mmHg 96%
22:00 -20°C° 0.1 mm 2 m/s 673 mmHg 97%
23:00 -21°C° 0.1 mm 2 m/s 673 mmHg 97%

Depois de amanhã, 25 Janeiro, Segunda-feira

Tempo Temperatura Precipitação Vento Pressão Humidade
00:00 -21°C° 0.1 mm 2 m/s 673 mmHg 97%
01:00 -21°C° 0 mm 2 m/s 673 mmHg 97%
02:00 -20°C° 0 mm 1 m/s 674 mmHg 97%
03:00 -20°C° 0 mm 1 m/s 674 mmHg 97%
04:00 -20°C° 0 mm 1 m/s 674 mmHg 97%
05:00 -21°C° 0 mm 1 m/s 674 mmHg 97%
06:00 -21°C° 0 mm 1 m/s 674 mmHg 97%
07:00 -21°C° 0 mm 1 m/s 675 mmHg 96%
08:00 -21°C° 0 mm 1 m/s 675 mmHg 96%
09:00 -22°C° 0 mm 1 m/s 676 mmHg 96%
10:00 -20°C° 0 mm 1 m/s 676 mmHg 92%
11:00 -21°C° 0 mm 2 m/s 676 mmHg 89%
12:00 -20°C° 0 mm 2 m/s 676 mmHg 86%
13:00 -20°C° 0 mm 2 m/s 676 mmHg 85%
14:00 -20°C° 0 mm 2 m/s 676 mmHg 85%
15:00 -20°C° 0 mm 2 m/s 676 mmHg 84%
16:00 -23°C° 0 mm 2 m/s 675 mmHg 87%
17:00 -24°C° 0 mm 2 m/s 675 mmHg 90%
18:00 -26°C° 0 mm 2 m/s 675 mmHg 94%
19:00 -23°C° 0 mm 1 m/s 675 mmHg 93%
20:00 -24°C° 0 mm 1 m/s 675 mmHg 93%
21:00 -24°C° 0 mm 1 m/s 675 mmHg 93%
22:00 -24°C° 0 mm 1 m/s 675 mmHg 93%
23:00 -24°C° 0 mm 1 m/s 675 mmHg 93%

26 Janeiro, Terça-feira

Tempo Temperatura Precipitação Vento Pressão Humidade
00:00 -25°C° 0 mm 1 m/s 674 mmHg 93%
01:00 -25°C° 0 mm 1 m/s 674 mmHg 93%
02:00 -25°C° 0 mm 1 m/s 674 mmHg 93%
03:00 -27°C° 0 mm 1 m/s 674 mmHg 93%
04:00 -25°C° 0 mm 1 m/s 674 mmHg 92%
05:00 -25°C° 0 mm 1 m/s 674 mmHg 92%
06:00 -25°C° 0 mm 1 m/s 674 mmHg 92%
07:00 -24°C° 0 mm 1 m/s 674 mmHg 91%
08:00 -23°C° 0 mm 1 m/s 675 mmHg 91%
09:00 -22°C° 0 mm 1 m/s 675 mmHg 91%
10:00 -21°C° 0 mm 1 m/s 675 mmHg 90%
11:00 -20°C° 0 mm 1 m/s 675 mmHg 89%
12:00 -18°C° 0 mm 1 m/s 675 mmHg 87%
13:00 -18°C° 0 mm 1 m/s 675 mmHg 87%
14:00 -17°C° 0 mm 1 m/s 675 mmHg 87%
15:00 -17°C° 0 mm 1 m/s 675 mmHg 88%
16:00 -18°C° 0 mm 1 m/s 675 mmHg 90%
17:00 -20°C° 0 mm 1 m/s 675 mmHg 93%
18:00 -22°C° 0 mm 1 m/s 675 mmHg 96%
19:00 -23°C° 0 mm 1 m/s 675 mmHg 96%
20:00 -23°C° 0 mm 1 m/s 675 mmHg 96%
21:00 -24°C° 0 mm 1 m/s 675 mmHg 96%
22:00 -24°C° 0 mm 1 m/s 675 mmHg 96%
23:00 -25°C° 0 mm 1 m/s 675 mmHg 96%

27 Janeiro, Quarta-feira

Tempo Temperatura Precipitação Vento Pressão Humidade
00:00 -25°C° 0 mm 1 m/s 675 mmHg 97%
01:00 -26°C° 0 mm 0 m/s 675 mmHg 97%
02:00 -26°C° 0 mm 0 m/s 675 mmHg 97%
03:00 -26°C° 0 mm 0 m/s 675 mmHg 97%
04:00 -27°C° 0 mm 0 m/s 675 mmHg 97%
05:00 -27°C° 0 mm 0 m/s 676 mmHg 96%
06:00 -27°C° 0 mm 0 m/s 676 mmHg 96%
07:00 -27°C° 0 mm 0 m/s 676 mmHg 95%
08:00 -26°C° 0 mm 0 m/s 677 mmHg 94%
09:00 -27°C° 0 mm 1 m/s 677 mmHg 92%
10:00 -23°C° 0 mm 1 m/s 678 mmHg 90%
11:00 -21°C° 0 mm 1 m/s 678 mmHg 88%
12:00 -19°C° 0 mm 1 m/s 678 mmHg 85%
13:00 -18°C° 0 mm 1 m/s 678 mmHg 84%
14:00 -17°C° 0 mm 1 m/s 678 mmHg 84%
15:00 -16°C° 0 mm 1 m/s 678 mmHg 83%
16:00 -18°C° 0 mm 1 m/s 678 mmHg 83%
17:00 -20°C° 0 mm 1 m/s 678 mmHg 83%
18:00 -22°C° 0 mm 1 m/s 677 mmHg 83%
19:00 -22°C° 0 mm 1 m/s 677 mmHg 80%
20:00 -22°C° 0 mm 1 m/s 677 mmHg 77%
21:00 -22°C° 0 mm 1 m/s 677 mmHg 73%
22:00 -21°C° 0 mm 1 m/s 678 mmHg 73%
23:00 -20°C° 0 mm 1 m/s 678 mmHg 73%

28 Janeiro, Quinta-feira

Tempo Temperatura Precipitação Vento Pressão Humidade
00:00 -19°C° 0 mm 1 m/s 678 mmHg 73%
01:00 -19°C° 0 mm 1 m/s 678 mmHg 73%
02:00 -18°C° 0 mm 1 m/s 678 mmHg 72%
03:00 -18°C° 0 mm 1 m/s 678 mmHg 72%
04:00 -17°C° 0 mm 1 m/s 678 mmHg 71%
05:00 -17°C° 0 mm 1 m/s 678 mmHg 71%
06:00 -16°C° 0 mm 1 m/s 678 mmHg 71%
07:00 -16°C° 0 mm 1 m/s 678 mmHg 71%
08:00 -15°C° 0 mm 1 m/s 678 mmHg 71%
09:00 -15°C° 0 mm 1 m/s 679 mmHg 71%
10:00 -13°C° 0 mm 1 m/s 679 mmHg 70%
11:00 -12°C° 0 mm 1 m/s 679 mmHg 69%
12:00 -10°C° 0 mm 1 m/s 679 mmHg 68%
13:00 -10°C° 0 mm 1 m/s 679 mmHg 70%
14:00 -9°C° 0 mm 1 m/s 679 mmHg 72%
15:00 -9°C° 0 mm 1 m/s 679 mmHg 74%
16:00 -11°C° 0 mm 1 m/s 679 mmHg 75%
17:00 -13°C° 0 mm 1 m/s 679 mmHg 76%
18:00 -15°C° 0 mm 1 m/s 679 mmHg 78%
19:00 -15°C° 0 mm 1 m/s 679 mmHg 78%
20:00 -15°C° 0 mm 1 m/s 679 mmHg 78%
21:00 -16°C° 0 mm 1 m/s 679 mmHg 79%
22:00 -16°C° 0 mm 1 m/s 679 mmHg 79%
23:00 -16°C° 0 mm 1 m/s 679 mmHg 80%
Mostrar mais